7 * 24
多渠道服务支持
STARLINK-37294(NORAD编号68559)是美国太空探索技术公司(SpaceX)星链(Starlink)低轨互联网星座的一颗卫星,隶属于全球最大的商业卫星星座项目。星链计划旨在构建覆盖全球的低轨天基通信系统,提供高速低时延互联网接入服务,该卫星运行于近地轨道,采用Ku/Ka频段通信,是SpaceX持续扩充星座部署中的组成单元。作为二代星链部署的卫星之一,它参与构建全球覆盖的卫星互联网网络,为消费端及特殊场景提供通信服务,星链星座截至2025年底已在轨运行超9000颗活跃卫星,该卫星遵循SpaceX的空间规避与残骸管控标准,降低空间碰撞与太空垃圾风险。
美国
(US)
| 数据来源 | 国际轨道数据 |
| 星历时间: | 2026-04-14T20:00:02+0800 5小时前 查看轨道信息 |
| 半长轴: | 6680.428km |
| 偏心率: | 0.0001118 |
| 轨道倾角: | 53.158° |
| 近地点辐角 | 70.514° |
| 升交点赤经 | 204.878° |
| 平近点角 | 76.674° |
| 近地点: | 301.544km |
| 远地点: | 303.038km |
| 周期: | 90.566分钟 |
| 每日圈数: | 15.899974 |